Starlink 32391

operational
NORAD ID: 61855 Int'l Des: 2024-202 Owner: SPXS Country: US Constellation: starlink
LEOCIRCULAR

About Starlink 32391

Description loading...

Live Position

Loading 3D Globe...

Upcoming Passes

Altitude History

Altitude vs Time

uPlot chart will show altitude changes over time

Two-Line Element Set

1 61855U 24202L 26036.08796842 -.00000343 00000-0 -29492-5 0 9999
2 61855 43.0018 61.9290 0000636 253.3213 106.7569 15.27572055 70341
Epoch: Feb 5, 2026 • Age: 11 hours

Current Status

Altitude 484.2 km
Velocity 7.63 km/s
Sub-Earth Point 31.20°N, 124.16°E
Launch Date Nov 7, 2024
Age 1.2 years
Type internet

Technical Details

Classification Payload
Mass 730.00 kg
Dry Mass 700.00 kg
Total Mass 730.00 kg
Length 0.30 m
Diameter 4.10 m
Span 29.00 m
Shape Box + pan
Manufacturer SPXS
Bus Type Starlink V2M
Phase Status In Orbit
Owner/State SPXS/US

Large Constellations

Loading constellations...